Regional Weather Roundup
Issued by NWS

Home | Current Version | Previous Version | Graphics & Text | Print | Product List | Glossary On
Versions: 1 2 3 4 5 6 7 8 9 10 11 12 13 14 15 16 17 18 19 20 21 22 23 24 25 26 27 28 29 30 31 32 33 34 35 36 37 38 39 40 41 42 43 44 45 46 47 48 49 50
000
ASUS43 KBIS 011510
RWRND

NORTH DAKOTA REGIONAL WEATHER ROUNDUP
NATIONAL WEATHER SERVICE BISMARCK ND
900 AM CST SUN MAR 01 2015

NOTE: "FAIR" INDICATES FEW OR NO CLOUDS BELOW 12,000 FEET WITH NO
SIGNIFICANT WEATHER AND/OR OBSTRUCTIONS TO VISIBILITY.


NDZ001>003-009>011-017-011600-
NORTHWEST NORTH DAKOTA

CITY           SKY/WX    TMP DP  RH WIND       PRES   REMARKS
WILLISTON      CLOUDY    11   7  84 W6        30.23R WCI   1
MINOT          MOSUNNY   10   4  76 W15       30.17R WCI  -7
MINOT AFB      SUNNY      9   6  87 NW17      30.18R WCI -10
$$

NDZ018>021-031>035-040>046-011600-
SOUTHWEST NORTH DAKOTA

CITY           SKY/WX    TMP DP  RH WIND       PRES   REMARKS
BISMARCK       CLOUDY    14   8  77 CALM      30.21R
DICKINSON      SUNNY     17  12  80 W15       30.16R WCI   2
GARRISON         N/A     13   8  81 NW18      30.17R WCI  -4
HETTINGER ARPT SUNNY     15  10  80 W13       30.20R WCI   1
$$

NDZ004>008-012>016-024-026-027-054-011600-
NORTHEAST NORTH DAKOTA

CITY           SKY/WX    TMP DP  RH WIND       PRES   REMARKS
GRAND FORKS    PTSUNNY    8   0  69 W6        30.16R WCI  -2
DEVILS LAKE    MOSUNNY    9   1  72 W13       30.13R WCI  -7
$$

NDZ022-023-025-028>030-036>039-047>053-011600-
SOUTHEAST NORTH DAKOTA

CITY           SKY/WX    TMP DP  RH WIND       PRES   REMARKS
FARGO          CLOUDY     8   1  73 SW9       30.21R WCI  -5
JAMESTOWN      MOSUNNY   11   3  70 W14       30.16R WCI  -5
$$



USA.gov is the U.S. government's official web portal to all federal, state and local government web resources and services.